sat.trackr.live / text

‹ back to catalog

ICO G1

NORAD 32763 · 2008-016A

PAYLOAD ACTIVE UNKNOWN

§ Identity

Operator
Country
US
Launch date
2008-04-14
Launch site
AFETR
Launch vehicle
Mass (kg)
RCS (m²)
14.16

Purposes: comms

External: N2YO · Heavens-Above · Gunter

§ Orbital elements

Epoch: 2026-05-25T04:27:21.290112Z

Period
1,436.13 min
Inclination
5.5330°
Eccentricity
0.0002183
Mean motion
1.00269562 rev/d
Perigee alt
35,778.0 km
Apogee alt
35,796.4 km
Semi-major
42,165.4 km
B*
0.0000e+0
RAAN
36.2111°
Arg perigee
10.7881°
Mean anomaly
169.7595°
Rev number
6,631

§ Raw data

ICO G11 32763U 08016A   26145.18566308 -.00000175  00000+0  00000+0 0  99932 32763   5.5330  36.2111 0002183  10.7881 169.7595  1.00269562 66311

JSON: /api/v1/satellites/32763 · /tle

For live sub-satellite position, see the globe view (requires WebGL).

§ Visibility from observer

Set your observer location to see the next 7 days of passes ≥ 10°. The values pass through the URL so the page stays shareable.

No JS? Fill the form by hand. The geolocation button needs JavaScript.